星链-30087 (STARLINK-30087 )

导读

STARLINK-30087是美国SpaceX公司星链星座的第1.5批次卫星,于2023年5月19日由猎鹰9号火箭发射升空。卫星重约295公斤,运行在低地球轨道,配备Ku/Ka波段相控阵通信天线与氪离子霍尔推进器,具备自主轨道调整和避碰能力,主要为全球提供低延迟宽带卫星互联网服务,也是星链星座全球覆盖组网的组成部分,设计工作寿命约5年。

基本信息
目录编号:
56691
目录名称:
STARLINK-30087
国际标识:
2023-067D
轨道中心:
EARTH
卫星名称:
星链-30087
卫星全名:
星链-30087 (STARLINK-30087 )
卫星状态:
已陨落 最后检测时间 2024-09-10
发射日期:
2023-05-19 UTC
国别 :
美国 (US)
星等 :
--
轨道信息
数据来源 国际轨道数据
星历时间: 2024-09-10T17:39:27+0800
轨道信息已过期642天
半长轴: 6589.322km
偏心率: 0.0018508
轨道倾角: 42.967°
近地点辐角 113.745°
升交点赤经 263.654°
平近点角 300.082°
近地点: 198.991km
远地点: 223.383km
周期: 88.720分钟
每日圈数: 16.230866
详细信息
固有亮度:
5
最大亮度:
0.3
卫星平台:
Starlink v2.0 mini
覆盖范围:
全球
运营商:
太空探索技术公司
运营商所在国:
美国
制造商(研发单位):
太空探索技术公司
制造商所在国:
美国
使用方式:
暂无
卫星简介
星链(Starlink)计划是由太空探索技术公司(SpaceX)提出的一个巨型低轨卫星互联网星座项目,计划在2019年至2024年间在太空搭建由约1.2万颗卫星组成的“星链”网络,其中1584颗将部署在地球上空550千米处的近地轨道,并从2020年开始工作。该卫星仍在工作。